Weather History for West Palm Beach, FL

Change the Weather History Date:

Sunday, November 21, 2010

  Actual Average Record
Temperature  
Mean Temperature 75 °F 72 °F  
Max Temperature 83 °F 79 °F 90 °F (1900)
Min Temperature 66 °F 65 °F 38 °F (1914)
Degree Days  
Heating Degree Days 0 0  
Month to date heating degree days 9 0  
Since 1 July heating degree days 9 1  
Cooling Degree Days 10 7  
Month to date cooling degree days 159 183  
Year to date cooling degree days 3927 3804  
Growing Degree Days 24 (Base 50)    
Moisture  
Dew Point 61 °F    
Average Humidity 62    
Maximum Humidity 81    
Minimum Humidity 43    
Precipitation  
Precipitation 0.04 in 0.13 in 2.74 in (1993)
Month to date precipitation 1.14 3.56  
Year to date precipitation 51.85 57.76  
Snow  
Snow 0.00 in - - ()
Month to date snowfall 0.0  
Since 1 July snowfall 0.0  
Since 1 September snowfall 0.0  
Snow Depth 0.00 in    
Sea Level Pressure  
Sea Level Pressure 30.22 in    
Wind  
Wind Speed 9 mph (East)    
Max Wind Speed 21 mph    
Max Gust Speed 25 mph    
Visibility 10 miles    
Events Rain    
T = Trace of Precipitation, MM = Missing Value Source: NWS Daily Summary

Daily Weather History Graph

Daily Weather History Graph

Search for Another Location

Airport:

Trip Planner

Search our weather history database for the weather conditions in past years. The results will help you decide how hot, cold, wet, or windy it might be!

Date:

Astronomy

Nov. 21, 2010 Rise Set
Actual Time 6:44 AM EST 5:28 PM EST
Civil Twilight 6:19 AM EST 5:52 PM EST
Nautical Twilight 5:51 AM EST 6:21 PM EST
Astronomical Twilight 5:23 AM EST 6:48 PM EST
Moon 5:24 PM EST (11/21) 6:37 AM EST (11/21)
Length of Visible Light 11h 33m
Length of Day
10h 43m
Full, 100% of the Moon is Illuminated
Nov 21
Full
Nov 21
Full
Nov 28
Last Quarter
Dec 5
New
Dec 13
First Quarter

Hourly Weather History & Observations

Time (EST) Temp. Heat Index Dew Point Humidity Pressure Visibility Wind Dir Wind Speed Gust Speed Precip Events Conditions
12:53 AM 73.9 °F - 61.0 °F 64% 30.21 in 10.0 mi East 6.9 mph - N/A   Scattered Clouds
1:53 AM 73.0 °F - 60.1 °F 64% 30.20 in 10.0 mi East 8.1 mph - N/A   Scattered Clouds
2:53 AM 73.9 °F - 60.1 °F 62% 30.19 in 10.0 mi East 6.9 mph - N/A   Partly Cloudy
3:53 AM 73.0 °F - 59.0 °F 61% 30.19 in 10.0 mi ENE 3.5 mph - N/A   Scattered Clouds
4:53 AM 69.1 °F - 61.0 °F 75% 30.19 in 10.0 mi Calm Calm - N/A   Scattered Clouds
5:53 AM 66.9 °F - 61.0 °F 81% 30.20 in 10.0 mi Calm Calm - N/A   Partly Cloudy
6:53 AM 66.9 °F - 61.0 °F 81% 30.22 in 10.0 mi Calm Calm - N/A   Mostly Cloudy
7:53 AM 75.9 °F - 64.0 °F 67% 30.23 in 10.0 mi East 5.8 mph - 0.01 in   Mostly Cloudy
8:53 AM 79.0 °F - 63.0 °F 58% 30.25 in 10.0 mi East 9.2 mph - N/A   Mostly Cloudy
9:53 AM 79.0 °F - 61.0 °F 54% 30.27 in 10.0 mi ENE 10.4 mph - N/A   Mostly Cloudy
10:53 AM 81.0 °F 81.6 °F 60.1 °F 49% 30.26 in 10.0 mi East 10.4 mph - N/A   Scattered Clouds
11:53 AM 82.9 °F 82.6 °F 57.9 °F 42% 30.24 in 10.0 mi East 13.8 mph - N/A   Scattered Clouds
12:53 PM 82.0 °F 82.1 °F 59.0 °F 45% 30.22 in 10.0 mi East 12.7 mph - N/A   Scattered Clouds
1:53 PM 82.0 °F 82.0 °F 57.9 °F 44% 30.20 in 10.0 mi East 17.3 mph - N/A   Scattered Clouds
2:53 PM 81.0 °F 81.3 °F 59.0 °F 47% 30.19 in 10.0 mi East 15.0 mph - N/A   Scattered Clouds
3:53 PM 80.1 °F 80.9 °F 60.1 °F 50% 30.20 in 10.0 mi East 13.8 mph - N/A   Scattered Clouds
4:53 PM 78.1 °F - 60.1 °F 54% 30.21 in 10.0 mi ENE 12.7 mph - N/A   Scattered Clouds
5:53 PM 77.0 °F - 60.1 °F 56% 30.21 in 10.0 mi East 10.4 mph - N/A   Mostly Cloudy
6:53 PM 77.0 °F - 62.1 °F 60% 30.22 in 10.0 mi East 9.2 mph - N/A   Mostly Cloudy
7:53 PM 77.0 °F - 62.1 °F 60% 30.23 in 10.0 mi ENE 11.5 mph - N/A   Scattered Clouds
8:53 PM 77.0 °F - 62.1 °F 60% 30.23 in 10.0 mi ENE 12.7 mph - N/A   Mostly Cloudy
9:53 PM 77.0 °F - 64.0 °F 64% 30.24 in 10.0 mi ENE 9.2 mph - N/A   Mostly Cloudy
10:53 PM 75.9 °F - 62.1 °F 62% 30.23 in 10.0 mi East 10.4 mph - N/A   Mostly Cloudy
11:53 PM 72.0 °F - 64.9 °F 78% 30.23 in 5.0 mi East 13.8 mph 25.3 mph 0.03 in Rain Light Rain